Fort Worth, TX

10:56 AM CDT on July 28, 2017 (GMT -0500)
Fort Worth Meacham International

Weather History for KFTW - January, 2014

Change the Weather History Date:

Tuesday, January 21, 2014

  Actual Average Record
Temperature  
Mean Temperature 42 °F -  
Max Temperature 48 °F 55 °F 78 °F (2005)
Min Temperature 37 °F 34 °F 19 °F (2011)
Degree Days  
Heating Degree Days 22    
Moisture  
Dew Point 17 °F    
Average Humidity 36    
Maximum Humidity 53    
Minimum Humidity 23    
Precipitation  
Precipitation 0.00 in - - ()
Sea Level Pressure  
Sea Level Pressure 30.31 in    
Wind  
Wind Speed 10 mph (NNW)    
Max Wind Speed 16 mph    
Max Gust Speed 24 mph    
Visibility 10 miles    
Events      
Averages and records for this station are not official NWS values.
T = Trace of Precipitation, MM = Missing Value Source: NWS Daily Summary

Daily Weather History Graph

Daily Weather History Graph

Search for Another Location

Airport or City:

Trip Planner

Search our weather history database for the weather conditions in past years. The results will help you decide how hot, cold, wet, or windy it might be!

Date:

Astronomy

Jan. 21, 2014 Rise Set
Actual Time 7:30 AM CST 5:51 PM CST
Civil Twilight 7:03 AM CST 6:18 PM CST
Nautical Twilight 6:33 AM CST 6:48 PM CST
Astronomical Twilight 6:04 AM CST 7:17 PM CST
Moon 11:05 PM CST (1/21) 10:19 AM CST (1/21)
Length of Visible Light 11h 14m
Length of Day
10h 21m
Waning Gibbous, 74% of the Moon is Illuminated
Jan 21
Waning Gibbous
Jan 23
Last Quarter
Jan 30
New
Feb 6
First Quarter
Feb 14
Full

Hourly Weather History & Observations

Time (CST) Temp. Windchill Dew Point Humidity Pressure Visibility Wind Dir Wind Speed Gust Speed Precip Events Conditions
12:53 AM 48.9 °F - 25.0 °F 39% 30.25 in 10.0 mi NNW 9.2 mph - N/A   Clear
1:53 AM 46.9 °F - 25.0 °F 42% 30.27 in 10.0 mi North 10.4 mph - N/A   Clear
2:53 AM 46.9 °F - 24.1 °F 41% 30.30 in 10.0 mi North 12.7 mph - N/A   Clear
3:53 AM 45.0 °F 38.5 °F 24.1 °F 44% 30.32 in 10.0 mi North 13.8 mph 20.7 mph N/A   Clear
4:53 AM 43.0 °F 37.7 °F 23.0 °F 45% 30.34 in 10.0 mi North 9.2 mph - N/A   Clear
5:53 AM 41.0 °F 35.2 °F 21.9 °F 47% 30.37 in 10.0 mi NNW 9.2 mph - N/A   Clear
6:53 AM 39.0 °F 31.4 °F 19.0 °F 45% 30.39 in 10.0 mi NNW 12.7 mph - N/A   Clear
7:53 AM 37.9 °F 28.9 °F 16.0 °F 41% 30.41 in 10.0 mi North 16.1 mph 24.2 mph N/A   Clear
8:53 AM 37.9 °F 28.9 °F 21.9 °F 53% 30.44 in 10.0 mi NNW 16.1 mph - N/A   Clear
9:53 AM 39.0 °F 31.0 °F 16.0 °F 39% 30.45 in 10.0 mi North 13.8 mph 23.0 mph N/A   Clear
10:53 AM 42.1 °F 34.5 °F 14.0 °F 32% 30.45 in 10.0 mi North 15.0 mph - N/A   Clear
11:53 AM 43.0 °F 36.8 °F 12.9 °F 30% 30.44 in 10.0 mi North 11.5 mph 19.6 mph N/A   Clear
12:53 PM 45.0 °F 40.1 °F 12.9 °F 27% 30.39 in 10.0 mi North 9.2 mph 18.4 mph N/A   Clear
1:53 PM 48.0 °F - 14.0 °F 26% 30.35 in 10.0 mi NNE 9.2 mph - N/A   Clear
2:53 PM 46.9 °F - 14.0 °F 27% 30.32 in 10.0 mi West 5.8 mph - N/A   Clear
3:53 PM 48.0 °F - 12.0 °F 24% 30.30 in 10.0 mi West 5.8 mph - N/A   Clear
4:53 PM 48.9 °F - 12.0 °F 23% 30.27 in 10.0 mi Calm Calm - N/A   Clear
5:53 PM 46.0 °F - 12.9 °F 26% 30.25 in 10.0 mi Calm Calm - N/A   Clear
6:53 PM 45.0 °F 43.5 °F 12.9 °F 27% 30.25 in 10.0 mi SE 3.5 mph - N/A   Clear
7:53 PM 43.0 °F 40.3 °F 15.1 °F 32% 30.22 in 10.0 mi SSE 4.6 mph - N/A   Clear
8:53 PM 41.0 °F 37.1 °F 15.1 °F 35% 30.22 in 10.0 mi SE 5.8 mph - N/A   Clear
9:53 PM 37.0 °F 32.4 °F 17.1 °F 44% 30.20 in 10.0 mi South 5.8 mph - N/A   Clear
10:53 PM 39.9 °F 36.7 °F 16.0 °F 38% 30.18 in 10.0 mi South 4.6 mph - N/A   Clear
11:53 PM 39.0 °F 35.7 °F 16.0 °F 39% 30.16 in 10.0 mi SSW 4.6 mph - N/A   Clear